GSLV R/B, 54149

Orbit data source: Space-Track

GSLV R/B, 54149 is space debris in LEO originally from an Indian launch on Sat, 22 Oct 2022 UTC launched from the Sirharikota (SRI). Debris objects in space refer to the collection of defunct objects orbiting the Earth. Examples of debris include non-operational satellites, rocket bodies, and fragments generated from explosions, collisions, or faulty payload assembly.

Loading next visibility...
Identifier
54149, 2022-138AN
Orbit
LEO
Country
Flag of ININ / IND
Related business
Manufacturer
ISRO
Mission
Spacecraft
Bus & Motor
C25, CE-20
Mass
4,400 kg wet, 4,400 kg dry
Launch date (UTC)
2022-10-22 (4 years ago)
Launch vehicle
Unknown
Launch site
Sirharikota (SRI)
Object type
Payload
Rocket body
Debris
Shape & HBR
Cyl + 1 Nozzle, 6.8 m
Radar Cross Section
48.836 m², Large (>1 m²)

Expand to show TLE details & history
Last TLE update: 2 days ago

TLE from 2 days ago
0 GSLV R/B
1 54149U 22138AN  26171.39262727  .00001845  00000-0  15597-3 0  9992
2 54149  87.3806 131.9079 0023267 132.8603 227.4588 14.97268932199297
Epoch: 2026-06-20T09:25Z
TLE epoch observation values (Epoch: 2026-06-20T09:25:22.996Z)
Latitude
-0.00005°
Longitude
81.95418°
Altitude
589.452 km
Speed
7.559 km/s
True Right ascension
08h 47m 37s
True Declination
0° 00' 00"
Sunlit
Object was in daylight at epoch
Visualization orbit readout
Latitude
Unknown
Longitude
Unknown
Altitude
Unknown
Speed
Unknown
Apparent Right ascension
Unknown
Apparent Declination
Unknown
Sunlit
N/A
Visualization observer readout
Local Sidereal Time
21:30:22
Azimuth
Unknown
Elevation
Unknown
Doppler factor
Unknown
Orbital elements
Apogee altitude
588.369 km
Perigee altitude
556.026 km
Semi-major axis
6,950.334 km
Eccentricity
0.00233
Inclination
87.3806°
RAAN
131.9079°
Arg. of periapsis
132.8603°
True anomaly
227.26274°
Mean anomaly
227.4588°
Eccentric anomaly
227.36073°
Mean motion
3.74571 °/min
Orbital period
96.11 mins
BSTAR
0.00015597
Loading maneuver chart data...
Computing Atmospheric mass density...
Loading historical data...
Loading historical data...
Loading historical data...
Loading historical data...
Loading historical data...
Loading historical data...
Loading historical data...

Documentation

Showing up to 5 results
|